Overview Statistics Trail Chart Weather Telemetry Raw packets
 

This is the latest recevied weather packets stored in our database for station/object KB1WCR. If no packets are shown the sender has not sent any weather packets the latest 10 day(s).

<< 95 96 97 98 99 100 101 >>
Time Temp. Humidity Pressure Rain* Wind** Luminosity Snow
1787713450 15° C 99% 1014.6 hPa 0 mm - 0 W/m² -
1787713148 14.44° C 99% 1014.2 hPa 0 mm - 0 W/m² -
1787712843 15° C 99% 1014.6 hPa 0 mm - 0 W/m² -
1787712539 15° C 99% 1014.4 hPa 0 mm - 0 W/m² -
1787712239 15° C 99% 1014.6 hPa 0 mm - 0 W/m² -
1787711934 15° C 99% 1014.5 hPa 0 mm - 0 W/m² -
1787711634 15° C 99% 1014.3 hPa 0 mm - 0 W/m² -
1787711329 15° C 99% 1014.2 hPa 0 mm - 0 W/m² -
1787711019 15° C 99% 1014.2 hPa 0 mm - 0 W/m² -
1787710716 15.56° C 99% 1014 hPa 0 mm - 0 W/m² -
1787710410 15.56° C 99% 1014.1 hPa 0 mm - 0 W/m² -
1787710107 15.56° C 99% 1014.2 hPa 0 mm - 0 W/m² -
1787709801 16.11° C 99% 1014.3 hPa 0 mm - 0 W/m² -
1787709497 15.56° C 99% 1014.2 hPa 0 mm - 0 W/m² -
1787709192 15.56° C 99% 1014.4 hPa 0 mm - 0 W/m² -
1787708889 15.56° C 99% 1014.1 hPa 0 mm - 0 W/m² -
1787708583 15.56° C 99% 1014.2 hPa 0 mm - 0 W/m² -
1787708278 16.11° C 99% 1014.1 hPa 0 mm - 0 W/m² -
1787707974 16.11° C 99% 1013.9 hPa 0 mm - 0 W/m² -
1787707669 16.11° C 99% 1014.1 hPa 0 mm - 0 W/m² -
1787707365 16.67° C 99% 1014.1 hPa 0 mm - 0 W/m² -
1787707060 16.67° C 99% 1014 hPa 0 mm - 0 W/m² -
1787706760 16.67° C 99% 1013.9 hPa 0 mm - 0 W/m² -
1787706455 16.67° C 99% 1014 hPa 0 mm - 0 W/m² -
1787706151 16.67° C 99% 1013.7 hPa 0 mm - 0 W/m² -

* Rain latest hour (hover to see other rain measurements)
** Current wind speed in m/s (hover to see current wind gust speed)